Temp
-5 -5 -5 -5 -5 -5 -5 -5 -5 -5 -5 -5 -5 -5 -5 -5 -5 -6 -5 -6 -6 -6 -6 -6 -6 -6 -6 -6 -6 -6 -7 -9 -9 -9 -9 -9 -10 -9 -9 -10 -10 -11 -10 -10 -10
-5 -5 -5 -5 -5 -5 -5 -5 -5 -5 -5 -5 -5 -5 -6 -6 -6 -6 -6 -6 -6 -6 -6 -6 -6 -6 -6 -6 -6 -7 -7 -9 -9 -9 -9 -9 -10 -9 -9 -10 -10 -11 -11 -10 -10
-5 -6 -5 -5 -5 -5 -5 -5 -5 -5 -5 -5 -5 -5 -6 -6 -6 -6 -6 -6 -6 -6 -6 -6 -6 -6 -6 -6 -6 -7 -8 -9 -8 -8 -9 -9 -9 -8 -8 -10 -11 -11 -11 -10 -10
-6 -6 -5 -6 -6 -5 -5 -5 -5 -5 -5 -5 -5 -5 -6 -6 -6 -6 -6 -6 -6 -6 -6 -6 -6 -6 -6 -6 -6 -7 -7 -6 -8 -8 -8 -8 -8 -8 -8 -9 -10 -11 -11 -10 -10
-6 -6 -6 -6 -6 -6 -5 -5 -5 -5 -5 -5 -5 -5 -5 -6 -6 -6 -6 -6 -6 -6 -6 -6 -6 -6 -6 -7 -7 -7 -7 -7 -7 -7 -7 -8 -8 -9 -9 -10 -10 -10 -11 -10 -10
-6 -6 -6 -6 -6 -6 -6 -5 -5 -5 -5 -5 -5 -5 -5 -6 -6 -5 -6 -6 -6 -6 -6 -6 -6 -7 -6 -6 -7 -8 -8 -8 -8 -9 -9 -9 -9 -9 -9 -10 -11 -11 -11 -10 -10
-6 -6 -6 -6 -6 -6 -6 -6 -6 -6 -6 -5 -5 -5 -6 -6 -6 -6 -6 -6 -6 -6 -6 -6 -6 -6 -6 -6 -7 -7 -8 -8 -9 -10 -10 -9 -9 -9 -9 -9 -10 -11 -10 -9 -10
-7 -7 -6 -6 -6 -6 -6 -6 -6 -6 -6 -6 -6 -6 -6 -6 -6 -6 -6 -6 -6 -6 -6 -6 -7 -7 -6 -7 -7 -8 -7 -8 -8 -8 -9 -8 -9 -9 -8 -8 -10 -11 -10 -9 -10
-7 -7 -7 -7 -7 -6 -6 -6 -6 -6 -6 -6 -6 -6 -6 -6 -6 -6 -6 -6 -6 -6 -6 -7 -7 -7 -7 -7 -8 -8 -8 -7 -7 -8 -8 -8 -9 -9 -9 -10 -11 -10 -10 -10 -10
-8 -7 -7 -7 -7 -7 -6 -6 -6 -6 -6 -6 -6 -6 -6 -6 -6 -6 -6 -7 -7 -7 -6 -7 -7 -7 -7 -7 -8 -8 -8 -8 -8 -8 -8 -8 -8 -8 -8 -10 -10 -10 -10 -10 -10
-8 -8 -7 -7 -7 -7 -7 -6 -7 -7 -6 -6 -7 -7 -7 -6 -6 -6 -7 -7 -7 -7 -7 -7 -7 -7 -7 -8 -8 -7 -8 -8 -8 -8 -8 -8 -7 -8 -8 -9 -9 -10 -10 -10 -10
-8 -8 -7 -7 -7 -7 -7 -7 -7 -7 -7 -7 -7 -7 -7 -7 -7 -7 -7 -8 -8 -8 -8 -8 -7 -7 -8 -8 -8 -8 -7 -7 -8 -9 -8 -8 -7 -8 -9 -9 -9 -9 -10 -9 -10
-8 -8 -7 -7 -7 -7 -7 -7 -7 -7 -7 -7 -7 -7 -7 -8 -7 -8 -8 -8 -8 -8 -8 -8 -8 -8 -8 -8 -8 -8 -8 -8 -8 -9 -9 -9 -8 -9 -10 -10 -10 -10 -10 -10 -10
-8 -8 -8 -8 -8 -8 -7 -7 -7 -7 -7 -8 -7 -7 -7 -7 -7 -7 -8 -8 -8 -8 -9 -9 -9 -9 -9 -9 -9 -9 -9 -8 -8 -8 -9 -9 -9 -9 -9 -9 -9 -10 -10 -9 -9
-8 -8 -8 -8 -8 -8 -7 -7 -7 -8 -8 -8 -7 -7 -7 -7 -8 -8 -8 -8 -8 -8 -9 -9 -9 -9 -9 -9 -9 -8 -9 -9 -9 -9 -9 -9 -9 -10 -10 -9 -9 -10 -10 -9 -10
-9 -9 -9 -9 -8 -8 -8 -8 -8 -8 -8 -8 -8 -8 -8 -8 -8 -8 -8 -8 -8 -8 -9 -9 -9 -9 -9 -9 -9 -9 -9 -9 -9 -9 -9 -9 -10 -10 -9 -9 -10 -10 -10 -10 -10
-9 -9 -9 -9 -9 -8 -8 -8 -8 -8 -8 -8 -8 -8 -8 -8 -8 -8 -8 -8 -8 -8 -9 -9 -9 -8 -9 -9 -9 -10 -10 -10 -10 -9 -10 -10 -11 -10 -10 -9 -9 -9 -9 -9 -10
-9 -9 -9 -9 -9 -9 -8 -8 -8 -8 -8 -8 -8 -8 -8 -8 -8 -8 -8 -8 -8 -8 -9 -9 -9 -9 -10 -10 -10 -10 -10 -9 -10 -10 -10 -10 -11 -10 -10 -11 -10 -10 -10 -10 -9
-9 -9 -9 -9 -9 -9 -9 -8 -8 -8 -8 -8 -8 -8 -8 -8 -8 -8 -8 -8 -8 -8 -9 -9 -10 -9 -10 -9 -10 -10 -10 -10 -10 -10 -10 -10 -11 -11 -10 -10 -10 -10 -11 -11 -10
-10 -10 -10 -10 -9 -9 -9 -8 -8 -8 -8 -8 -8 -8 -8 -8 -8 -8 -9 -9 -9 -8 -9 -9 -10 -9 -10 -10 -11 -11 -11 -11 -11 -10 -9 -10 -10 -11 -11 -10 -10 -10 -10 -10 -10
-10 -10 -10 -10 -10 -10 -10 -9 -9 -8 -9 -9 -9 -9 -9 -9 -9 -9 -9 -9 -9 -9 -9 -9 -9 -11 -10 -10 -10 -11 -11 -11 -11 -11 -10 -9 -10 -11 -11 -10 -10 -11 -10 -11 -11
-10 -10 -10 -10 -10 -11 -10 -9 -9 -9 -9 -9 -9 -9 -9 -9 -9 -9 -9 -9 -9 -9 -9 -8 -9 -9 -11 -11 -12 -11 -11 -11 -10 -10 -11 -10 -10 -10 -10 -10 -10 -10 -9 -10 -10
-10 -10 -10 -11 -11 -11 -11 -10 -9 -9 -9 -9 -10 -9 -9 -10 -9 -9 -9 -9 -10 -10 -10 -10 -10 -10 -10 -11 -11 -12 -11 -11 -11 -11 -11 -11 -10 -11 -11 -11 -11 -10 -10 -10 -10
-11 -11 -10 -11 -11 -11 -11 -10 -10 -9 -9 -10 -9 -9 -9 -10 -10 -10 -10 -10 -11 -11 -11 -11 -11 -11 -10 -10 -11 -11 -12 -12 -11 -11 -12 -11 -11 -11 -11 -11 -11 -12 -11 -11 -11
-10 -10 -10 -10 -10 -11 -10 -10 -10 -10 -10 -10 -10 -10 -10 -10 -11 -11 -11 -11 -11 -11 -11 -11 -11 -11 -11 -11 -10 -10 -10 -11 -11 -11 -11 -11 -11 -11 -12 -11 -11 -11 -12 -12 -12
-10 -10 -10 -11 -11 -11 -11 -11 -11 -11 -10 -10 -10 -10 -10 -11 -11 -11 -11 -11 -11 -11 -11 -11 -11 -10 -10 -11 -11 -11 -11 -11 -11 -11 -11 -11 -11 -12 -12 -12 -12 -12 -12 -12 -12
-10 -11 -11 -11 -11 -11 -11 -11 -11 -11 -11 -11 -11 -11 -11 -11 -11 -11 -11 -11 -11 -11 -12 -11 -11 -11 -10 -11 -11 -11 -12 -12 -11 -11 -11 -11 -12 -12 -12 -12 -12 -12 -12 -12 -12
Height
5901 5902 5903 5904 5905 5904 5904 5904 5904 5904 5904 5903 5903 5903 5903 5902 5902 5902 5901 5901 5899 5899 5899 5899 5898 5897 5897 5896 5896 5897 5899 5902 5902 5905 5902 5903 5899 5898 5897 5897 5899 5901 5901 5900 5898
5899 5900 5901 5902 5902 5902 5902 5902 5902 5903 5902 5902 5902 5901 5901 5901 5900 5900 5900 5899 5899 5899 5899 5898 5897 5896 5896 5896 5895 5897 5897 5900 5901 5901 5901 5901 5898 5897 5896 5897 5899 5899 5900 5900 5898
5896 5897 5898 5899 5900 5899 5899 5900 5900 5900 5900 5900 5900 5899 5899 5899 5899 5898 5898 5898 5898 5898 5898 5898 5896 5896 5895 5895 5895 5896 5897 5896 5898 5899 5899 5899 5898 5895 5896 5896 5896 5897 5898 5898 5898
5893 5895 5896 5897 5897 5897 5897 5898 5898 5898 5898 5898 5897 5897 5896 5897 5898 5896 5896 5897 5897 5897 5897 5897 5896 5895 5895 5896 5895 5895 5895 5895 5896 5896 5896 5899 5900 5899 5895 5895 5894 5895 5894 5896 5896
5890 5891 5892 5893 5894 5894 5894 5896 5896 5896 5896 5896 5895 5895 5895 5895 5894 5893 5894 5895 5895 5895 5895 5896 5896 5895 5895 5895 5895 5895 5896 5896 5895 5896 5897 5897 5898 5896 5895 5893 5893 5893 5892 5893 5894
5887 5888 5889 5890 5891 5891 5892 5892 5893 5893 5893 5893 5893 5893 5893 5893 5892 5891 5892 5892 5892 5893 5893 5895 5896 5894 5894 5894 5894 5894 5893 5895 5895 5895 5896 5895 5895 5891 5894 5891 5891 5891 5890 5890 5893
5883 5884 5885 5886 5887 5888 5889 5889 5890 5891 5891 5891 5891 5891 5891 5891 5890 5889 5890 5889 5890 5890 5890 5892 5893 5893 5893 5894 5893 5893 5893 5892 5893 5893 5891 5886 5890 5888 5888 5885 5887 5888 5888 5889 5889
5878 5880 5881 5882 5884 5885 5886 5886 5887 5888 5888 5888 5889 5889 5889 5888 5888 5888 5887 5887 5887 5888 5888 5889 5890 5891 5891 5892 5891 5892 5892 5891 5889 5889 5888 5888 5890 5886 5884 5882 5883 5885 5887 5888 5888
5875 5876 5877 5879 5881 5882 5883 5884 5885 5886 5886 5886 5886 5886 5886 5886 5887 5886 5886 5885 5885 5886 5886 5886 5887 5888 5889 5889 5890 5888 5888 5888 5888 5889 5887 5887 5886 5884 5881 5880 5882 5883 5883 5883 5885
5871 5872 5874 5875 5877 5879 5879 5881 5882 5882 5882 5883 5882 5884 5883 5883 5883 5883 5884 5884 5884 5883 5884 5883 5884 5885 5886 5885 5886 5885 5885 5885 5885 5885 5884 5884 5884 5883 5882 5880 5880 5880 5879 5879 5879
5866 5867 5869 5871 5873 5875 5876 5878 5879 5879 5879 5879 5880 5879 5879 5879 5880 5880 5881 5881 5881 5881 5881 5880 5882 5882 5882 5881 5881 5882 5883 5884 5883 5882 5882 5880 5882 5882 5882 5881 5879 5877 5876 5875 5874
5860 5862 5865 5868 5870 5872 5872 5873 5873 5874 5874 5875 5875 5875 5876 5876 5876 5877 5878 5879 5879 5879 5877 5878 5879 5879 5879 5878 5878 5878 5879 5879 5881 5879 5878 5877 5879 5880 5879 5877 5874 5873 5874 5873 5871
5856 5858 5861 5864 5866 5868 5867 5868 5869 5870 5871 5871 5871 5871 5873 5873 5874 5874 5875 5876 5876 5877 5876 5875 5876 5876 5877 5876 5876 5876 5876 5876 5876 5877 5874 5872 5876 5876 5873 5867 5869 5871 5872 5871 5870
5852 5854 5857 5860 5864 5863 5863 5865 5865 5866 5866 5869 5869 5870 5871 5872 5873 5873 5873 5875 5874 5875 5874 5874 5874 5874 5874 5873 5873 5873 5872 5872 5872 5873 5870 5867 5873 5865 5864 5865 5865 5868 5869 5869 5868
5847 5851 5853 5856 5858 5859 5862 5861 5861 5863 5865 5867 5868 5868 5870 5871 5872 5872 5872 5873 5873 5873 5873 5874 5872 5873 5873 5873 5872 5872 5871 5870 5870 5869 5866 5866 5869 5863 5862 5863 5864 5867 5866 5865 5863
5844 5847 5849 5852 5854 5856 5857 5858 5860 5862 5862 5864 5866 5867 5868 5868 5870 5870 5871 5871 5871 5871 5871 5871 5871 5871 5871 5871 5870 5871 5869 5868 5867 5867 5865 5865 5865 5863 5860 5861 5862 5863 5863 5861 5861
5840 5843 5844 5847 5850 5852 5853 5855 5858 5859 5862 5863 5864 5865 5867 5867 5868 5869 5869 5869 5869 5869 5869 5869 5868 5868 5869 5869 5867 5866 5866 5866 5867 5867 5865 5863 5863 5862 5860 5858 5859 5858 5859 5859 5856
5835 5837 5839 5843 5846 5848 5849 5852 5853 5857 5859 5862 5862 5863 5865 5866 5866 5866 5867 5867 5867 5867 5869 5867 5867 5866 5867 5866 5867 5865 5864 5864 5864 5865 5864 5861 5860 5862 5860 5857 5855 5855 5854 5859 5857
5828 5830 5834 5837 5841 5842 5845 5846 5850 5854 5857 5859 5860 5861 5862 5864 5865 5865 5864 5865 5866 5866 5868 5866 5865 5864 5865 5864 5865 5864 5863 5862 5861 5861 5861 5860 5859 5857 5857 5856 5854 5855 5854 5852 5851
5822 5824 5828 5831 5834 5836 5839 5842 5846 5850 5853 5855 5857 5857 5858 5860 5861 5861 5862 5862 5862 5863 5864 5864 5864 5863 5863 5861 5861 5860 5860 5860 5859 5859 5858 5858 5856 5856 5855 5853 5852 5850 5848 5849 5848
5815 5818 5822 5826 5829 5831 5833 5837 5841 5845 5849 5852 5852 5853 5854 5856 5856 5856 5857 5858 5858 5861 5862 5863 5863 5862 5862 5859 5858 5857 5855 5855 5856 5856 5854 5855 5856 5853 5850 5848 5847 5844 5842 5842 5843
5809 5813 5817 5820 5825 5827 5828 5832 5836 5841 5845 5847 5847 5849 5850 5850 5851 5852 5852 5855 5855 5856 5855 5857 5858 5860 5861 5858 5856 5852 5851 5852 5852 5852 5848 5848 5853 5849 5846 5842 5841 5840 5839 5840 5840
5804 5808 5812 5816 5820 5823 5824 5827 5831 5837 5840 5841 5842 5843 5845 5847 5847 5847 5847 5849 5850 5850 5849 5850 5851 5853 5855 5854 5852 5849 5848 5846 5844 5842 5843 5841 5843 5846 5840 5838 5838 5837 5836 5835 5835
5799 5802 5808 5812 5816 5819 5821 5822 5826 5831 5834 5836 5837 5838 5841 5843 5842 5842 5844 5843 5844 5844 5844 5843 5842 5843 5845 5846 5842 5843 5842 5839 5838 5835 5833 5833 5831 5834 5833 5832 5832 5831 5829 5827 5826
5792 5797 5803 5808 5811 5814 5816 5819 5821 5825 5827 5830 5832 5836 5837 5839 5837 5837 5838 5837 5837 5837 5837 5836 5835 5834 5835 5835 5835 5834 5835 5835 5830 5829 5825 5826 5825 5825 5825 5823 5822 5822 5823 5822 5820
5787 5793 5797 5801 5804 5807 5810 5813 5816 5819 5822 5825 5827 5831 5833 5833 5833 5831 5831 5831 5832 5831 5829 5828 5827 5827 5826 5826 5824 5822 5827 5824 5824 5820 5819 5816 5816 5816 5816 5814 5812 5811 5811 5810 5809
5782 5786 5790 5794 5797 5801 5804 5807 5812 5815 5819 5821 5822 5825 5825 5825 5826 5826 5825 5826 5825 5823 5819 5817 5818 5818 5816 5817 5814 5813 5815 5812 5814 5814 5812 5810 5809 5808 5805 5803 5801 5800 5799 5799 5798
Wind_Speed
14 14 15 14 13 11 10 10 9 10 10 11 12 12 11 10 9 6 4 4 5 7 8 8 8 8 9 8 10 9 14 28 26 12 20 17 12 11 1 5 14 21 22 23 26
15 14 15 15 14 12 11 11 10 8 9 9 11 12 12 11 10 9 6 5 5 6 6 5 7 8 7 8 6 6 16 31 29 19 21 19 15 12 4 5 7 14 18 20 22
17 14 13 15 13 12 13 12 11 11 10 9 10 11 12 12 11 11 9 8 6 6 6 5 6 7 6 8 5 8 19 34 32 27 24 21 19 21 20 12 8 13 16 18 17
19 18 17 17 16 15 15 14 13 10 10 9 8 10 12 12 12 13 11 9 9 8 8 6 7 7 7 5 2 7 19 23 31 31 31 27 29 26 22 17 15 17 20 18 16
21 20 18 18 18 16 16 15 12 10 10 9 9 8 9 9 13 14 12 12 12 11 10 9 8 8 7 2 1 3 10 12 17 19 14 18 17 25 20 20 23 22 24 23 10
22 19 18 18 18 16 15 14 13 11 10 10 10 10 9 8 12 15 10 12 12 12 13 9 6 7 6 4 3 1 4 16 24 22 22 23 25 30 14 21 23 21 23 15 11
21 19 18 16 16 15 13 12 12 11 10 10 10 9 8 8 10 12 9 13 13 13 14 11 8 11 11 6 5 5 8 11 15 23 25 34 22 22 16 23 27 25 21 15 13
19 19 17 16 16 14 13 12 11 10 9 9 10 9 10 10 9 10 8 11 12 13 13 13 13 12 12 9 8 8 13 15 18 21 26 22 9 16 9 13 21 21 19 14 10
20 19 18 17 16 14 13 12 12 11 12 13 13 13 14 15 13 12 12 11 11 11 12 13 14 13 12 11 12 15 18 17 18 15 19 14 14 13 7 6 20 20 16 16 12
24 22 20 19 18 17 16 15 16 15 15 15 16 15 16 16 15 15 14 15 15 14 13 12 13 13 13 15 19 20 21 20 19 19 22 23 13 14 10 8 15 17 20 19 18
27 25 23 21 21 18 17 15 15 15 15 16 17 17 17 17 17 16 13 13 15 14 14 14 12 13 15 18 20 22 22 22 23 25 26 27 16 12 11 9 13 18 19 24 20
25 25 23 22 22 19 18 16 17 16 17 16 18 19 17 19 18 15 16 13 14 13 13 14 14 14 14 18 20 21 22 23 19 23 26 25 19 15 18 19 20 15 19 20 23
22 22 21 21 19 17 16 16 16 17 16 15 14 14 13 15 11 11 12 11 13 13 12 11 10 11 12 15 17 19 19 21 20 18 25 29 19 24 27 28 24 13 15 18 19
23 23 22 19 16 16 16 16 17 16 14 11 12 10 9 8 7 7 4 5 7 7 9 9 7 7 7 11 13 15 15 14 14 10 11 23 12 15 23 24 20 13 15 19 18
24 24 23 18 17 17 14 16 15 15 13 10 9 9 8 8 7 7 5 5 6 5 7 6 8 9 11 12 13 12 10 10 9 7 13 13 10 13 16 18 19 18 17 19 11
24 24 23 20 18 16 15 16 15 16 14 11 9 8 7 7 7 6 5 5 6 7 7 7 8 10 11 13 16 13 10 9 8 7 13 10 11 9 16 14 16 21 19 16 7
25 25 24 21 19 18 18 20 19 19 17 13 12 11 10 9 8 7 7 6 7 9 8 8 11 11 8 9 12 10 8 8 9 7 11 12 8 12 10 18 18 25 21 19 14
28 27 25 23 22 21 20 24 23 21 17 13 15 14 13 11 10 11 11 10 10 11 9 10 13 13 11 10 9 10 9 10 7 5 7 15 19 15 14 15 21 21 27 21 20
29 28 28 27 25 23 23 27 23 20 17 16 15 15 14 13 13 14 16 15 13 11 9 11 14 15 11 11 12 11 9 13 13 8 7 13 14 15 18 20 20 21 21 25 21
26 24 25 25 26 25 27 29 26 24 20 16 17 18 18 17 16 17 15 15 14 12 10 11 13 16 14 15 15 14 15 14 14 18 12 11 15 19 20 24 27 27 29 21 26
26 26 25 24 24 25 27 29 27 24 19 16 17 17 18 18 19 20 20 19 20 15 13 12 11 17 16 20 20 19 23 22 20 19 20 15 11 17 22 25 26 30 32 27 20
27 26 23 24 24 23 26 28 27 23 17 17 20 20 20 21 22 23 25 23 23 20 21 19 16 13 12 19 23 27 29 25 25 25 26 24 12 19 23 27 28 30 32 33 34
29 25 22 23 23 24 26 25 24 20 18 21 23 24 25 25 27 27 28 27 25 25 27 27 26 23 19 21 22 26 30 30 31 32 32 32 27 19 25 26 30 31 33 31 34
30 27 23 24 25 26 26 27 25 24 23 23 24 25 25 22 25 27 26 28 27 27 28 29 32 32 28 27 30 28 27 31 34 35 39 37 37 33 32 31 28 31 33 34 39
32 29 26 26 26 27 27 27 26 25 25 23 23 21 22 22 23 23 23 25 27 29 30 32 34 35 35 34 33 33 32 32 39 39 43 41 40 40 39 40 40 38 38 39 44
33 30 29 28 28 28 27 26 26 25 25 23 23 20 21 22 23 25 26 27 28 29 31 33 35 36 37 36 37 39 32 35 36 42 43 45 45 44 43 44 45 45 46 46 47
32 32 31 29 29 28 26 27 24 23 22 23 25 23 24 26 27 28 29 29 30 32 37 39 38 39 40 36 37 37 32 35 35 35 38 41 44 45 47 48 48 48 50 51 54
Wind_Direction
251 247 249 253 256 259 258 261 268 272 269 266 261 259 263 265 269 281 294 310 302 287 283 283 278 273 276 270 270 257 199 193 211 208 225 218 242 262 304 354 322 313 324 334 340
248 248 245 249 258 259 259 264 266 272 277 269 262 259 259 260 261 264 270 285 295 300 315 314 280 274 277 255 243 248 188 196 211 211 231 228 223 250 227 249 295 319 321 333 338
246 248 247 247 251 259 263 265 268 267 275 282 269 262 257 255 257 254 260 266 274 290 306 327 287 272 258 254 216 191 187 200 213 223 222 228 221 283 275 268 297 306 318 322 344
250 247 246 251 255 263 269 262 264 267 264 268 269 262 258 253 257 252 254 255 270 278 287 287 298 291 286 296 288 210 214 227 221 231 237 243 265 290 296 279 272 282 298 312 324
251 248 247 251 256 259 262 261 258 260 263 260 262 266 264 254 253 259 255 252 260 269 274 280 296 319 330 346 38 226 265 271 257 262 264 255 256 289 295 287 273 278 283 292 299
244 244 246 251 255 254 252 252 251 257 254 250 255 261 263 250 255 270 263 262 259 262 268 277 281 276 293 283 116 59 202 238 253 261 253 269 270 279 273 260 262 273 279 288 310
238 239 241 244 245 243 244 246 245 247 241 246 250 250 255 252 250 259 253 258 256 256 259 258 254 254 255 259 231 202 200 202 205 218 233 246 252 268 260 247 248 263 276 291 303
232 233 231 234 234 234 236 241 242 241 239 241 249 252 254 253 254 259 251 251 257 257 254 254 248 250 265 261 258 227 228 218 217 223 234 257 270 281 282 263 233 256 278 295 305
231 230 229 231 231 233 237 243 250 250 248 250 251 255 257 256 252 250 257 256 255 252 253 253 253 250 247 247 241 241 239 236 239 242 243 257 244 265 293 235 223 257 284 292 277
233 232 231 234 236 238 241 246 250 246 246 249 250 252 250 253 251 254 251 252 255 257 258 259 256 255 249 243 238 244 248 251 254 267 273 289 251 265 276 238 231 251 271 277 280
233 234 235 237 242 242 248 242 243 248 248 249 252 248 250 252 250 252 249 255 257 257 259 257 259 258 253 249 249 250 251 252 251 253 273 285 262 264 334 297 269 262 271 272 280
231 235 237 239 240 239 240 241 246 252 253 255 251 251 245 249 253 255 254 252 258 259 261 265 265 261 265 263 261 260 263 266 262 264 278 278 295 311 306 301 281 262 266 272 270
226 229 229 229 230 233 241 249 256 259 256 246 243 243 230 240 248 240 251 254 257 256 264 271 271 274 278 279 280 274 268 268 271 263 272 278 294 287 269 275 274 258 268 265 275
222 225 224 223 228 239 249 253 256 251 240 219 222 218 212 223 229 238 240 249 264 263 257 266 284 287 279 273 269 264 269 271 276 274 256 251 272 259 259 270 261 240 269 272 291
219 222 228 224 232 245 252 252 247 220 216 204 205 205 217 217 225 244 258 265 283 266 261 271 270 271 277 286 289 275 270 279 285 262 242 258 207 257 262 256 231 243 262 274 340
222 222 229 227 235 245 249 229 218 204 204 197 201 213 219 231 226 234 264 280 277 270 276 278 283 291 310 309 301 288 283 297 295 293 251 265 222 276 269 260 236 248 262 251 264
226 226 230 231 238 243 238 225 221 213 210 205 210 212 220 228 239 253 271 286 279 267 261 273 281 292 307 314 326 326 313 289 302 302 265 264 243 240 294 268 253 262 275 265 254
233 234 236 237 239 242 237 227 225 223 226 221 222 231 238 244 255 264 269 273 274 277 265 262 265 290 304 297 303 315 298 316 319 287 259 265 264 255 249 272 273 283 288 292 287
235 236 238 240 240 239 238 232 227 227 226 231 239 250 250 250 255 256 267 274 278 290 281 262 259 273 281 287 291 304 313 321 310 295 258 271 264 253 256 253 270 275 275 280 279
227 231 233 233 231 233 236 234 231 234 239 244 252 255 259 260 258 258 264 276 283 281 281 273 256 270 275 283 284 294 290 291 299 305 295 265 261 260 267 271 279 283 285 275 286
230 231 232 230 229 230 233 234 231 233 239 246 249 253 260 265 268 268 269 271 275 280 275 267 272 270 281 279 282 273 281 286 290 289 295 307 279 262 269 270 271 266 275 283 295
225 226 225 225 224 225 230 234 228 231 238 244 249 250 251 255 256 262 269 273 282 280 275 275 276 267 282 289 282 281 284 286 283 283 281 284 280 290 282 275 276 274 273 276 281
220 221 217 218 217 221 227 234 234 232 233 243 248 253 255 256 264 265 268 273 274 275 282 286 283 279 274 275 267 267 274 278 281 283 281 283 286 277 284 285 286 290 296 300 307
218 220 218 219 220 223 230 239 242 240 239 242 251 255 259 263 267 272 281 282 285 286 284 282 282 281 277 268 264 261 268 268 271 274 273 277 283 283 278 277 277 278 286 285 290
219 220 225 227 227 231 236 240 243 247 248 245 243 248 259 265 267 272 271 271 273 275 277 278 279 279 278 276 270 267 260 262 267 270 273 276 273 276 276 281 282 282 281 280 282
221 222 228 230 229 232 235 236 240 243 249 256 263 261 260 265 268 270 272 274 278 278 279 279 280 279 278 278 276 274 273 266 259 266 269 274 277 277 277 280 282 285 286 286 283
221 221 224 225 227 230 231 239 246 252 253 257 264 268 266 266 266 268 272 276 279 283 284 284 285 282 280 277 274 274 273 271 270 265 266 270 274 278 279 280 280 282 283 284 283